Regional Weather Roundup
Issued by NWS

Home | Current Version | Previous Version | Graphics & Text | Print | Product List | Glossary On
Versions: 1 2 3 4 5 6 7 8 9 10 11 12 13 14 15 16 17 18 19 20 21 22 23 24 25 26 27 28 29 30 31 32 33 34 35 36 37 38 39 40 41 42 43 44 45 46 47 48 49 50
755
ASUS43 KDMX 252206
RWRIA

WEATHER ROUNDUP FOR IOWA
NATIONAL WEATHER SERVICE DES MOINES IA
400 PM CST SAT FEB 25 2017

NOTE: "FAIR" INDICATES FEW OR NO CLOUDS BELOW 12,000 FEET WITH NO
SIGNIFICANT WEATHER AND/OR OBSTRUCTIONS TO VISIBILITY.

* - THESE STATIONS ARE NOT NWS STATIONS...THUS NOT UNDER NWS
QUALITY CONTROL.  THEY ALSO DO NOT REPORT WEATHER SUCH
AS PRECIPITATION OR FOG.

IAZ001>003-012>014-020>022-031>034-043>046-252300-
   NORTHWEST IOWA

CITY           SKY/WX    TMP DP  RH WIND       PRES   REMARKS
CARROLL *      SUNNY     28  19  69 SW10      30.01F WCI  19
CHEROKEE *     CLOUDY    27  16  61 S12       29.97F WCI  17
DENISON *      SUNNY     28  18  64 SW9       29.98F WCI  20
LE MARS *      MOSUNNY  N/A N/A N/A S16       29.96F
SHELDON *      CLOUDY    28  21  74 S15       29.92F WCI  17
SIOUX CITY     SUNNY     30  16  56 S15       29.98F WCI  19
SPENCER        CLOUDY    26  18  71 SW13      29.95F WCI  15
STORM LAKE *   SUNNY     25  18  74 SW14      29.97F WCI  13
$$

IAZ055>058-069>071-079>083-090>094-252300-
   SOUTHWEST IOWA

CITY           SKY/WX    TMP DP  RH WIND       PRES   REMARKS
ATLANTIC *     SUNNY     32  19  59 SW13      30.03F WCI  22
AUDUBON *      MOSUNNY   28  18  64 SW8       30.02F WCI  20
CLARINDA *     SUNNY     36  19  51 SW9       30.08F WCI  29
COUNCIL BLFS * SUNNY     30  14  51 SW14G20   30.02F WCI  20
CRESTON *      CLOUDY    32  18  55 SW12G20   30.05F WCI  23
HARLAN  *      MOSUNNY   28  18  64 SW13      30.05F WCI  18
LAMONI         SUNNY     35  16  45 W6        30.06F WCI  30
RED OAK *      SUNNY     34  21  60 S13       30.05F WCI  25
SHENANDOAH *   SUNNY     36  19  51 SW12      30.06F WCI  27
$$

IAZ047>049-059>061-072>074-084-252300-
   CENTRAL IOWA

CITY           SKY/WX    TMP DP  RH WIND       PRES   REMARKS
AMES           CLOUDY    27  17  66 SW10      30.04F WCI  17
ANKENY *       CLOUDY    30  16  55 SW6       30.06F WCI  24
BOONE *        CLOUDY    27  14  59 SW10      30.01F WCI  17
CHARITON *     SUNNY     32  18  55 W8G15     30.06S WCI  25
DES MOINES     CLOUDY    32  17  54 W9        30.05F WCI  24
GRINNELL*      SUNNY     29  18  63 W10       30.05F WCI  20
KNOXVILLE *    SUNNY     32  16  51 W8        30.05S WCI  25
MARSHALLTOWN   CLOUDY    27  16  63 W12       30.03F WCI  17
NEWTON *       PTSUNNY   28  16  59 W9        30.04F WCI  20
PELLA *        SUNNY     33  18  54 W10       30.07F WCI  25
PERRY *        PTSUNNY   29  18  61 SW7       30.04F WCI  22
$$

IAZ004>006-015-016-023>025-035-036-252300-
   NORTH CENTRAL IOWA

CITY           SKY/WX    TMP DP  RH WIND       PRES   REMARKS
ALGONA *       FLURRIES  25  18  74 SW14      29.97F WCI  13
CLARION *      MOSUNNY   23  16  74 SW9       30.00F WCI  13
ESTHERVILLE    CLOUDY    24  18  77 SW12      29.94F WCI  13
FORT DODGE *   CLOUDY    25  14  63 SW10      30.01F WCI  15
MASON CITY     MOSUNNY   22  14  71 SW16      30.00R WCI   8
FOREST CITY *  CLOUDY    27  18  69 SW14      29.97F WCI  15
WEBSTER CITY * CLOUDY    25  14  63 SW10      29.99F WCI  15
IOWA FALLS *   CLOUDY    27  18  70 SW10      30.03S WCI  17
$$

IAZ007>011-017>019-026>030-037>042-050>054-066-252300-
   NORTHEAST IOWA

CITY           SKY/WX    TMP DP  RH WIND       PRES   REMARKS
CEDAR RAPIDS   SUNNY     28  18  66 NW14      30.02S WCI  17
CHARLES CITY * SUNNY     23  14  68 W14       30.00R WCI  11
CLINTON *      SUNNY     29  19  66 NW16      30.01R WCI  17
DECORAH *      SUNNY     23  12  63 W8G15     29.96R WCI  14
DUBUQUE        SUNNY     26  14  60 NW15      29.97R WCI  14
MONTICELLO *   SUNNY     28  18  64 W10G17    30.00S WCI  19
OELWEIN *      SUNNY     25  16  68 W14       30.00S WCI  13
WATERLOO       SUNNY     26  15  63 W15       30.03R WCI  14
$$

IAZ064-065-067-068-078-252300-
   EAST CENTRAL IOWA

CITY           SKY/WX    TMP DP  RH WIND       PRES   REMARKS
DAVENPORT      SUNNY     29  17  61 NW18      30.02R WCI  16
IOWA CITY      SUNNY     31  14  49 MISG      30.06R
MUSCATINE *    CLOUDY    32  18  55 NW16      30.06S WCI  21
QUAD CITIES    MOSUNNY   33  16  49 NW17      30.02R WCI  22
$$

IAZ062-063-075>077-085>089-095>099-252300-
   SOUTHEAST IOWA

CITY           SKY/WX    TMP DP  RH WIND       PRES   REMARKS
BURLINGTON     SUNNY     33  16  49 NW13      30.05S WCI  24
FAIRFIELD *    CLOUDY    32  16  51 W12G18    30.07R WCI  23
KEOKUK *       SUNNY     34   9  35 NW9G15    30.07R WCI  26
CENTERVILLE *    N/A     34  18  51 W9        30.08S WCI  26
OTTUMWA        CLOUDY    33  15  47 W9        30.06S WCI  25
WASHINGTON *   MOSUNNY   30  18  59 NW13      30.07S WCI  20
$$

ABBREVIATIONS USED IN REMARKS
   TC - TEMPERATURES IN CELSIUS
  WCI - WIND CHILL INDEX
   HX - HEAT INDEX
  VSB - VISIBILITY
$$





USA.gov is the U.S. government's official web portal to all federal, state and local government web resources and services.